Mooring,Latitude,Longitude,Date,Time,xCO2_SW_wet,xCO2_SW_wet_QF,H2O_SW,xCO2_Air_wet,xCO2_Air_wet_QF,H2O_AIR,Licor_Atm_Pressure,Licor_Temp,%_O2,SST,SSS,xCO2_SW_dry,xCO2_Air_dry,fCO2_SW_sat,fCO2_Air_sat,dfCO2
,Dec_Deg,Dec_Deg,MM/DD/YYYY,hh:mm,umol/mol,,umol/mol,umol/mol,,umol/mol,hPa,Deg_C,,Deg_C,PSS,umol/mol,umol/mol,uatm,uatm,uatm
TAO125W,-0.18,-124.37,5/8/2004,0:19,473.5,2,14.55,374.1,2,12.99,1007.2,31.7,99.52,-999,-999,480.5,379,-999,-999,-999
TAO125W,-0.18,-124.37,5/8/2004,3:19,472.3,2,13.55,374.1,2,12.93,1008.8,31,99.52,-999,-999,478.8,379,-999,-999,-999
TAO125W,-0.18,-124.37,5/8/2004,6:19,471.2,2,13.76,374,2,13.19,1010.1,30.2,99.52,-999,-999,477.7,379,-999,-999,-999
TAO125W,-0.18,-124.37,5/8/2004,9:19,472.7,2,13.28,374.1,2,12.74,1009.3,29.5,99.04,-999,-999,479.1,378.9,-999,-999,-999
TAO125W,-0.18,-124.37,5/8/2004,12:19,474.3,2,13.38,374.1,2,13.26,1008.4,29.1,99.04,26.94,35.227,480.7,379.1,460.4,363.1,97.3
TAO125W,-0.18,-124.37,5/8/2004,15:19,474.5,2,14.32,374.5,2,13.44,1009.7,28.9,98.56,-999,-999,481.4,379.6,-999,-999,-999
TAO125W,-0.18,-124.37,5/8/2004,18:19,475.1,2,14.82,374.5,2,13.15,1010.5,29,98.56,-999,-999,482.3,379.5,-999,-999,-999
TAO125W,-0.18,-124.37,5/8/2004,21:19,479.6,2,14.59,374.4,2,13.25,1008.1,29.6,98.56,-999,-999,486.7,379.4,-999,-999,-999
TAO125W,-0.18,-124.37,5/9/2004,0:19,478.6,2,14.67,374.2,2,13.28,1006.8,30.2,99.03,-999,-999,485.7,379.2,-999,-999,-999
TAO125W,-0.18,-124.37,5/9/2004,3:19,474.4,2,13.1,374.3,2,12.51,1008.6,30.4,98.56,-999,-999,480.7,379,-999,-999,-999
TAO125W,-0.18,-124.37,5/9/2004,6:19,472.5,2,13.56,374,2,13.01,1009.2,29.9,98.56,-999,-999,478.9,379,-999,-999,-999
TAO125W,-0.18,-124.37,5/9/2004,9:19,473,2,13.62,374.3,2,13.1,1007.3,29.4,99.03,-999,-999,479.5,379.2,-999,-999,-999
TAO125W,-0.18,-124.37,5/9/2004,12:19,474.3,2,13.32,374.1,2,13.2,1006.2,29,99.03,26.93,35.222,480.7,379.1,459.4,362.3,97.1
TAO125W,-0.18,-124.37,5/9/2004,15:19,474.3,2,13.83,374.3,2,13.34,1008,28.7,98.56,-999,-999,480.9,379.4,-999,-999,-999
TAO125W,-0.18,-124.37,5/9/2004,18:19,473.8,2,14.98,374,2,13.35,1008.4,28.7,98.56,-999,-999,481,379,-999,-999,-999
TAO125W,-0.18,-124.37,5/9/2004,21:19,474.7,2,14.16,373.9,2,13.26,1006.8,29.1,99.03,-999,-999,481.5,378.9,-999,-999,-999
TAO125W,-0.18,-124.37,5/10/2004,0:19,474.3,2,13.98,373.7,2,12.65,1005.3,29.3,98.55,-999,-999,481,378.5,-999,-999,-999
TAO125W,-0.18,-124.37,5/10/2004,3:19,472.2,2,13.19,373.6,2,12.66,1007.6,29.4,98.56,-999,-999,478.6,378.4,-999,-999,-999
TAO125W,-0.18,-124.37,5/10/2004,6:19,472.5,2,13.29,373.5,2,13.17,1008.1,29,98.56,-999,-999,478.8,378.5,-999,-999,-999
TAO125W,-0.18,-124.37,5/10/2004,9:19,474.6,2,13.45,373.7,2,12.95,1006.4,28.7,99.03,-999,-999,481.1,378.6,-999,-999,-999
TAO125W,-0.18,-124.37,5/10/2004,12:19,475.9,2,13.66,373.7,2,13.17,1005.1,28.4,98.55,26.81,35.229,482.5,378.7,460.7,361.6,99.1
TAO125W,-0.18,-124.37,5/10/2004,15:19,475.2,2,13.51,373.4,2,13.42,1006.5,28.3,98.55,-999,-999,481.7,378.5,-999,-999,-999
TAO125W,-0.18,-124.37,5/10/2004,18:19,476.1,2,13.99,373.8,2,13.13,1007,28.4,98.55,-999,-999,482.8,378.7,-999,-999,-999
TAO125W,-0.18,-124.37,5/10/2004,21:19,475.9,2,13.84,373.9,2,12.96,1005,28.7,98.07,-999,-999,482.5,378.8,-999,-999,-999
TAO125W,-0.18,-124.37,5/11/2004,0:19,475.5,2,14.07,373.8,2,13.18,1003.7,28.9,98.07,-999,-999,482.3,378.8,-999,-999,-999
TAO125W,-0.18,-124.37,5/11/2004,3:19,473.7,2,13.35,374,2,12.83,1005.9,29,98.55,-999,-999,480.1,378.9,-999,-999,-999
TAO125W,-0.18,-124.37,5/11/2004,6:19,473.2,2,12.7,374,2,12.58,1007.2,28.7,98.55,-999,-999,479.2,378.8,-999,-999,-999
TAO125W,-0.18,-124.37,5/11/2004,9:19,473.5,2,12.85,374.1,2,12.35,1006.6,28.4,98.55,-999,-999,479.7,378.8,-999,-999,-999
TAO125W,-0.18,-124.37,5/11/2004,12:19,473.1,2,13.04,373.7,2,12.18,1006.1,28.1,98.07,26.78,35.244,479.4,378.3,458.3,361.6,96.6
TAO125W,-0.18,-124.37,5/11/2004,15:19,473.9,2,13.63,374.9,2,12.43,1007.2,28,98.07,-999,-999,480.5,379.6,-999,-999,-999
TAO125W,-0.18,-124.37,5/11/2004,18:19,474.3,2,14.08,374.6,2,12.5,1008.6,28.1,97.6,-999,-999,481,379.3,-999,-999,-999
TAO125W,-0.18,-124.37,5/11/2004,21:19,476,2,13.8,374.8,2,12.15,1006.2,28.6,98.07,-999,-999,482.7,379.4,-999,-999,-999
TAO125W,-0.18,-124.37,5/12/2004,0:19,474.9,2,14.25,374.5,2,12.54,1005.1,29.2,98.07,-999,-999,481.7,379.2,-999,-999,-999
TAO125W,-0.18,-124.37,5/12/2004,3:19,472.5,2,13.26,374.5,2,12.73,1006.7,29.5,98.07,-999,-999,478.8,379.3,-999,-999,-999
TAO125W,-0.18,-124.37,5/12/2004,6:19,471.7,2,13.41,374.3,2,12.89,1007.1,29.1,98.07,-999,-999,478.1,379.2,-999,-999,-999
TAO125W,-0.18,-124.37,5/12/2004,9:19,472.5,2,13.55,374.5,2,13.05,1005.6,28.8,98.07,-999,-999,479,379.5,-999,-999,-999
TAO125W,-0.18,-124.37,5/12/2004,12:19,472.8,2,13.36,374.5,2,12.87,1003.9,28.5,98.07,26.76,35.253,479.2,379.3,457,361.8,95.2
TAO125W,-0.18,-124.37,5/12/2004,15:19,472.9,2,13.91,374.2,2,13.45,1005.7,28.3,98.07,-999,-999,479.6,379.3,-999,-999,-999
TAO125W,-0.18,-124.37,5/12/2004,18:19,472.6,2,13.95,374.7,2,13.49,1006.5,28.4,98.07,-999,-999,479.3,379.9,-999,-999,-999
TAO125W,-0.18,-124.37,5/12/2004,21:19,474.4,2,14.59,374.5,2,13.34,1005,28.6,98.07,-999,-999,481.5,379.6,-999,-999,-999
TAO125W,-0.18,-124.37,5/13/2004,0:19,472.4,2,14.13,374.3,2,13.23,1004.4,29,98.07,-999,-999,479.1,379.3,-999,-999,-999
TAO125W,-0.18,-124.37,5/13/2004,3:19,472.1,2,13.72,374.3,2,13.21,1006.5,29,98.07,-999,-999,478.6,379.4,-999,-999,-999
TAO125W,-0.18,-124.37,5/13/2004,6:19,471.5,2,13.5,374.2,2,13.39,1008,28.8,98.07,-999,-999,478,379.2,-999,-999,-999
TAO125W,-0.18,-124.37,5/13/2004,9:19,472.8,2,13.35,374.6,2,13.24,1006.5,28.6,98.07,-999,-999,479.2,379.6,-999,-999,-999
TAO125W,-0.18,-124.37,5/13/2004,12:19,474.4,2,13.22,374.7,2,13.13,1005.7,28.4,97.58,26.64,35.258,480.7,379.7,459.5,362.9,96.6
TAO125W,-0.18,-124.37,5/13/2004,15:19,475.3,2,14.24,374.1,2,13.79,1007,28.3,97.58,-999,-999,482.2,379.3,-999,-999,-999
TAO125W,-0.18,-124.37,5/13/2004,18:19,474.4,2,14.3,373.5,2,13.84,1007.7,28.3,97.58,-999,-999,481.3,378.8,-999,-999,-999
TAO125W,-0.18,-124.37,5/13/2004,21:19,477.2,2,14.26,374,2,13,1005.5,28.7,97.58,-999,-999,484.1,378.9,-999,-999,-999
TAO125W,-0.18,-124.37,5/14/2004,0:19,476.2,2,14.62,373.9,2,13.33,1004.6,29.1,97.58,-999,-999,483.3,379,-999,-999,-999
TAO125W,-0.18,-124.37,5/14/2004,3:19,474.2,2,13.6,374,2,13.49,1007.2,29.4,98.07,-999,-999,480.7,379.1,-999,-999,-999
TAO125W,-0.18,-124.37,5/14/2004,6:19,473.9,2,13.35,374.2,2,13.24,1009.1,29.1,98.07,-999,-999,480.3,379.2,-999,-999,-999
TAO125W,-0.18,-124.37,5/14/2004,9:19,476.2,2,13.53,373.7,2,13.03,1007.6,28.8,97.58,-999,-999,482.7,378.6,-999,-999,-999
TAO125W,-0.18,-124.37,5/14/2004,12:19,478.5,2,13.34,374.2,2,13.25,1006.5,28.5,97.58,26.55,35.266,485,379.2,464,362.8,101.2
TAO125W,-0.18,-124.37,5/14/2004,15:19,476.8,2,14.29,373.9,2,13.45,1008.4,28.3,97.58,-999,-999,483.7,379,-999,-999,-999
TAO125W,-0.18,-124.37,5/14/2004,18:19,479,2,15.06,373.8,2,13.85,1008.7,28.4,97.58,-999,-999,486.3,379.1,-999,-999,-999
TAO125W,-0.18,-124.37,5/14/2004,21:19,481.6,2,14.27,373.9,2,13.02,1007.3,28.8,97.1,-999,-999,488.5,378.9,-999,-999,-999
TAO125W,-0.18,-124.37,5/15/2004,0:19,481.3,2,14.54,374.1,2,13.25,1005.8,29.1,97.1,-999,-999,488.4,379.1,-999,-999,-999
TAO125W,-0.18,-124.37,5/15/2004,3:19,476.6,2,13.45,374,2,12.94,1008.3,29.2,97.58,-999,-999,483.1,378.9,-999,-999,-999
TAO125W,-0.18,-124.37,5/15/2004,6:19,476.9,2,13.59,373.8,2,13.09,1009.6,28.9,97.12,-999,-999,483.4,378.8,-999,-999,-999
TAO125W,-0.18,-124.37,5/15/2004,9:19,477.7,2,13.4,374.1,2,13.3,1008.3,28.6,97.58,-999,-999,484.2,379.2,-999,-999,-999
TAO125W,-0.18,-124.37,5/15/2004,12:19,477.4,2,13.23,373.9,2,13.13,1007.6,28.4,97.58,26.63,35.264,483.8,378.8,463.4,362.8,100.6
TAO125W,-0.18,-124.37,5/15/2004,15:19,476.8,2,13.79,373.9,2,13.33,1009.5,28.2,97.12,-999,-999,483.5,378.9,-999,-999,-999
TAO125W,-0.18,-124.37,5/15/2004,18:19,478.9,2,15.09,373.7,2,13.5,1010.6,28.4,97.12,-999,-999,486.2,378.9,-999,-999,-999
TAO125W,-0.18,-124.37,5/15/2004,21:19,486.4,2,14.7,374,2,13.41,1008.1,29.3,97.1,-999,-999,493.7,379.1,-999,-999,-999
TAO125W,-0.18,-124.37,5/16/2004,0:19,491.9,2,15.57,373.8,2,13.78,1006.2,30.3,97.1,-999,-999,499.6,379,-999,-999,-999
TAO125W,-0.18,-124.37,5/16/2004,3:19,482.5,2,13.24,373.6,2,13.08,1008.2,30.6,97.58,-999,-999,488.9,378.5,-999,-999,-999
TAO125W,-0.18,-124.37,5/16/2004,6:19,478.8,2,13.5,373.3,2,13.79,1009.7,29.8,97.58,-999,-999,485.3,378.5,-999,-999,-999
TAO125W,-0.18,-124.37,5/16/2004,9:19,477.8,2,13.81,373.7,2,13.7,1009,29.2,97.58,-999,-999,484.5,378.9,-999,-999,-999
TAO125W,-0.18,-124.37,5/16/2004,12:19,477.5,2,13.53,373.6,2,13.43,1008.1,28.8,97.58,26.79,35.267,484,378.7,463.6,362.7,100.9
TAO125W,-0.18,-124.37,5/16/2004,15:19,476.4,2,14.06,373.7,2,13.59,1010.2,28.6,97.12,-999,-999,483.1,378.9,-999,-999,-999
TAO125W,-0.18,-124.37,5/16/2004,18:19,479.1,2,15.72,373.6,2,14.12,1010.9,28.7,97.12,-999,-999,486.8,378.9,-999,-999,-999
TAO125W,-0.18,-124.37,5/16/2004,21:19,483.6,2,14.88,373.6,2,13.57,1008.5,29.5,97.58,-999,-999,490.9,378.7,-999,-999,-999
TAO125W,-0.18,-124.37,5/17/2004,0:19,482.3,2,15.1,373.4,2,13.3,1007,30.2,97.58,-999,-999,489.7,378.5,-999,-999,-999
TAO125W,-0.18,-124.37,5/17/2004,3:19,476.7,2,14.05,373,2,13.04,1009,30.5,97.58,-999,-999,483.5,378,-999,-999,-999
TAO125W,-0.18,-124.37,5/17/2004,6:19,474.7,2,14.04,373.6,2,13.92,1011.1,30,98.07,-999,-999,481.5,378.8,-999,-999,-999
TAO125W,-0.18,-124.37,5/17/2004,9:19,475.6,2,14.05,373.3,2,13.53,1010,29.5,98.07,-999,-999,482.3,378.4,-999,-999,-999
TAO125W,-0.18,-124.37,5/17/2004,12:19,476.9,2,13.71,373.5,2,13.6,1008.4,29.1,97.58,26.75,35.267,483.5,378.6,463.3,362.8,100.5
TAO125W,-0.18,-124.37,5/17/2004,15:19,477.3,2,14.93,373.5,2,14.08,1010.3,28.7,97.12,-999,-999,484.5,378.8,-999,-999,-999
TAO125W,-0.18,-124.37,5/17/2004,18:19,480.6,2,15.47,373.3,2,13.84,1011.4,28.9,97.12,-999,-999,488.2,378.5,-999,-999,-999
TAO125W,-0.18,-124.37,5/17/2004,21:19,490.1,2,15.04,373.7,2,13.3,1009.4,29.7,97.58,-999,-999,497.5,378.7,-999,-999,-999
TAO125W,-0.18,-124.37,5/18/2004,0:19,489.2,2,15.41,373.3,2,13.14,1007.9,30.6,97.1,-999,-999,496.8,378.3,-999,-999,-999
TAO125W,-0.18,-124.37,5/18/2004,3:19,482.7,2,14.09,373.7,2,13.03,1009.9,31.1,97.58,-999,-999,489.6,378.6,-999,-999,-999
TAO125W,-0.18,-124.37,5/18/2004,6:19,480.6,2,14.37,373.1,2,13.38,1011.4,30.4,97.58,-999,-999,487.6,378.2,-999,-999,-999
TAO125W,-0.18,-124.37,5/18/2004,9:19,480.3,2,13.88,373.7,2,13.35,1010,29.8,97.58,-999,-999,487.1,378.7,-999,-999,-999
TAO125W,-0.18,-124.37,5/18/2004,12:19,480.8,2,13.88,373.5,2,13.37,1009.6,29.3,97.1,26.85,35.274,487.6,378.5,467.7,363.1,104.6
TAO125W,-0.18,-124.37,5/18/2004,15:19,479.6,2,15.87,373.2,2,14.24,1011.1,28.9,97.1,-999,-999,487.3,378.5,-999,-999,-999
TAO125W,-0.18,-124.37,5/18/2004,18:19,483.4,2,16.09,373.3,2,14.05,1012.3,29.2,96.63,-999,-999,491.3,378.6,-999,-999,-999
TAO125W,-0.18,-124.37,5/18/2004,21:19,497,2,15.97,373.6,2,13.32,1010.2,30.3,97.1,-999,-999,505,378.6,-999,-999,-999
TAO125W,-0.18,-124.37,5/19/2004,0:19,496,2,15.83,373.5,2,13.42,1008.5,31.6,96.62,-999,-999,504,378.6,-999,-999,-999
TAO125W,-0.18,-124.37,5/19/2004,3:19,485.6,2,14.34,373.3,2,13.22,1010.8,32,97.1,-999,-999,492.7,378.3,-999,-999,-999
TAO125W,-0.18,-124.37,5/19/2004,6:19,479.9,2,14.49,373.3,2,13.44,1012.5,31.1,97.1,-999,-999,486.9,378.4,-999,-999,-999
TAO125W,-0.18,-124.37,5/19/2004,9:19,479.9,2,14.27,373.5,2,13.71,1011.1,30.3,97.1,-999,-999,486.9,378.7,-999,-999,-999
TAO125W,-0.18,-124.37,5/19/2004,12:19,479.3,2,14.17,373.5,2,13.64,1009.8,29.7,97.1,26.78,35.261,486.2,378.7,466.5,363.4,103.2
TAO125W,-0.18,-124.37,5/19/2004,15:19,477.9,2,15.72,373.3,2,14.46,1010.9,29.2,97.1,-999,-999,485.5,378.8,-999,-999,-999
TAO125W,-0.18,-124.37,5/19/2004,18:19,479.6,2,15.43,373.9,2,13.74,1011.9,29.3,96.63,-999,-999,487.1,379.1,-999,-999,-999
TAO125W,-0.18,-124.37,5/19/2004,21:19,483.9,2,15.61,374,2,13.44,1009.8,29.9,96.62,-999,-999,491.6,379.1,-999,-999,-999
TAO125W,-0.18,-124.37,5/20/2004,0:19,484,2,15.86,374,2,13.58,1008.2,30.6,96.62,-999,-999,491.8,379.1,-999,-999,-999
TAO125W,-0.18,-124.37,5/20/2004,3:19,481,2,13.95,373.7,2,12.91,1009.5,31,97.1,-999,-999,487.8,378.6,-999,-999,-999
TAO125W,-0.18,-124.37,5/20/2004,6:19,478.8,2,14.26,373.7,2,13.7,1011,30.3,97.1,-999,-999,485.7,378.9,-999,-999,-999
TAO125W,-0.18,-124.37,5/20/2004,9:19,478.9,2,14.16,373.9,2,13.22,1010.1,29.6,97.1,-999,-999,485.7,378.9,-999,-999,-999
TAO125W,-0.18,-124.37,5/20/2004,12:19,479.9,2,14.17,374.2,2,13.26,1009.6,29.2,97.1,26.68,35.198,486.8,379.2,467.1,363.9,103.2
TAO125W,-0.18,-124.37,5/20/2004,15:19,477.2,2,15.4,373.7,2,14.17,1011.5,28.8,97.1,-999,-999,484.7,379.1,-999,-999,-999
TAO125W,-0.18,-124.37,5/20/2004,18:19,478.7,2,15.57,374.3,2,13.52,1012.8,29,96.63,-999,-999,486.3,379.4,-999,-999,-999
TAO125W,-0.18,-124.37,5/20/2004,21:19,482.9,2,15.85,374.2,2,13.71,1010.8,29.7,96.62,-999,-999,490.7,379.4,-999,-999,-999
TAO125W,-0.18,-124.37,5/21/2004,0:19,482,2,15.77,374.4,2,13.51,1009,30.5,96.62,-999,-999,489.7,379.5,-999,-999,-999
TAO125W,-0.18,-124.37,5/21/2004,3:19,477.4,2,14.3,374.2,2,13.26,1010.1,30.9,97.1,-999,-999,484.3,379.2,-999,-999,-999
TAO125W,-0.18,-124.37,5/21/2004,6:19,475.4,2,14.6,374.2,2,13.62,1011.9,30.2,97.1,-999,-999,482.4,379.4,-999,-999,-999
TAO125W,-0.18,-124.37,5/21/2004,9:19,476,2,14.11,374,2,13.59,1011.4,29.6,97.1,-999,-999,482.8,379.2,-999,-999,-999
TAO125W,-0.18,-124.37,5/21/2004,12:19,477.3,2,14.15,374.6,2,13.25,1010.1,29.1,97.1,26.68,35.154,484.1,379.6,464.8,364.4,100.3
TAO125W,-0.18,-124.37,5/21/2004,15:19,477.2,2,15.76,374.2,2,14.14,1011.8,28.8,97.1,-999,-999,484.8,379.6,-999,-999,-999
TAO125W,-0.18,-124.37,5/21/2004,18:19,478.8,2,15.49,374.5,2,13.47,1012.4,28.9,96.63,-999,-999,486.3,379.6,-999,-999,-999
TAO125W,-0.18,-124.37,5/21/2004,21:19,480,2,15.64,374.4,2,13.52,1010.8,29.5,97.1,-999,-999,487.6,379.5,-999,-999,-999
TAO125W,-0.18,-124.37,5/22/2004,0:19,481.3,2,15.86,374.5,2,13.22,1008.8,30.2,97.1,-999,-999,489.1,379.5,-999,-999,-999
TAO125W,-0.18,-124.37,5/22/2004,3:19,477.4,2,14.04,374.3,2,13.04,1010.3,30.5,97.58,-999,-999,484.2,379.3,-999,-999,-999
TAO125W,-0.18,-124.37,5/22/2004,6:19,475.4,2,14.39,374.2,2,13.44,1012,30,97.58,-999,-999,482.3,379.3,-999,-999,-999
TAO125W,-0.18,-124.37,5/22/2004,9:19,476.1,2,14.38,374.5,2,13.46,1011,29.4,97.58,-999,-999,483,379.6,-999,-999,-999
TAO125W,-0.18,-124.37,5/22/2004,12:19,479,2,14.43,374.8,2,13.55,1009.8,29,97.1,26.56,35.146,486,380,466.6,364.8,101.8
TAO125W,-0.18,-124.37,5/22/2004,15:19,478.4,2,14.9,374.4,2,13.65,1010.9,28.7,97.1,-999,-999,485.6,379.6,-999,-999,-999
TAO125W,-0.18,-124.37,5/22/2004,18:19,479.6,2,15.29,374.8,2,13.29,1011.2,28.7,97.1,-999,-999,487,379.8,-999,-999,-999
TAO125W,-0.18,-124.37,5/22/2004,21:19,482.1,2,15.66,374.3,2,14.01,1009.4,29.1,96.62,-999,-999,489.8,379.6,-999,-999,-999
TAO125W,-0.18,-124.37,5/23/2004,0:19,482.5,2,15.62,374.2,2,13.91,1007.5,29.4,96.62,-999,-999,490.2,379.5,-999,-999,-999
TAO125W,-0.18,-124.37,5/23/2004,3:19,480.3,2,14.18,374.2,2,13.24,1008.7,29.7,96.62,-999,-999,487.2,379.2,-999,-999,-999
TAO125W,-0.18,-124.37,5/23/2004,6:19,479.2,2,14.23,373.9,2,14.13,1010.2,29.2,96.62,-999,-999,486.1,379.2,-999,-999,-999
TAO125W,-0.18,-124.37,5/23/2004,9:19,480.2,2,14.32,373.7,2,14.23,1008.9,28.9,96.62,-999,-999,487.2,379.1,-999,-999,-999
TAO125W,-0.18,-124.37,5/23/2004,12:19,481.3,2,14.09,373.7,2,13.62,1007.3,28.5,96.14,26.37,35.151,488.2,378.9,467.6,362.9,104.7
TAO125W,-0.18,-124.37,5/23/2004,15:19,480.6,2,14.62,373.9,2,13.78,1009,28.3,96.14,-999,-999,487.7,379.1,-999,-999,-999
TAO125W,-0.18,-124.37,5/23/2004,18:19,481.9,2,15.81,373.8,2,14.24,1009.8,28.4,96.14,-999,-999,489.6,379.2,-999,-999,-999
TAO125W,-0.18,-124.37,5/23/2004,21:19,485.1,2,14.84,373.8,2,13.57,1007.7,29,96.14,-999,-999,492.4,379,-999,-999,-999
TAO125W,-0.18,-124.37,5/24/2004,0:19,484.3,2,15.32,373.7,2,13.6,1007,29.5,96.6,-999,-999,491.8,378.9,-999,-999,-999
TAO125W,-0.18,-124.37,5/24/2004,3:19,480.6,2,14.21,373.7,2,13.68,1008.8,29.7,96.14,-999,-999,487.5,378.9,-999,-999,-999
TAO125W,-0.18,-124.37,5/24/2004,6:19,478.9,2,14.25,373.4,2,14.15,1009.8,29.3,96.14,-999,-999,485.8,378.8,-999,-999,-999
TAO125W,-0.18,-124.37,5/24/2004,9:19,479.4,2,13.93,373.5,2,13.84,1009.1,28.9,96.14,-999,-999,486.1,378.7,-999,-999,-999
TAO125W,-0.18,-124.37,5/24/2004,12:19,480.2,2,12.93,373.2,2,12.82,1008.1,28.5,96.14,26.31,35.163,486.5,378.1,466.4,362.5,103.9
TAO125W,-0.18,-124.37,5/24/2004,15:19,479.8,2,14.54,373.1,2,13.71,1009.5,28.2,96.14,-999,-999,486.9,378.3,-999,-999,-999
TAO125W,-0.18,-124.37,5/24/2004,18:19,479,2,15.27,373.3,2,14.08,1010.4,28.2,96.14,-999,-999,486.4,378.6,-999,-999,-999
TAO125W,-0.18,-124.37,5/24/2004,21:19,480,2,15.28,373.5,2,13.27,1008.7,28.6,95.65,-999,-999,487.5,378.5,-999,-999,-999
TAO125W,-0.18,-124.37,5/25/2004,0:19,479.2,2,15.33,373.1,2,13.26,1007.6,29.1,95.65,-999,-999,486.6,378.1,-999,-999,-999
TAO125W,-0.18,-124.37,5/25/2004,3:19,477.1,2,13.94,373.4,2,13.42,1009.7,29.4,96.62,-999,-999,483.9,378.5,-999,-999,-999
TAO125W,-0.18,-124.37,5/25/2004,6:19,476.4,2,14.04,373.5,2,13.55,1010.9,29,96.62,-999,-999,483.1,378.6,-999,-999,-999
TAO125W,-0.18,-124.37,5/25/2004,9:19,476.5,2,13.77,373.9,2,13.28,1010.3,28.7,96.14,-999,-999,483.1,378.9,-999,-999,-999
TAO125W,-0.18,-124.37,5/25/2004,12:19,477.8,2,13.88,374,2,13.02,1009.7,28.3,96.14,26.23,35.174,484.5,378.9,465.3,364,101.4
TAO125W,-0.18,-124.37,5/25/2004,15:19,476,2,15.1,373.9,2,13.55,1011.8,28,95.67,-999,-999,483.3,379.1,-999,-999,-999
TAO125W,-0.18,-124.37,5/25/2004,18:19,476.4,2,15.54,373.9,2,13.24,1012.8,28.1,95.67,-999,-999,484,378.9,-999,-999,-999
TAO125W,-0.18,-124.37,5/25/2004,21:19,478.5,2,14.91,374,2,12.89,1010.6,28.7,96.14,-999,-999,485.8,378.8,-999,-999,-999
TAO125W,-0.18,-124.37,5/26/2004,0:19,478.5,2,14.47,374.1,2,13.19,1008.8,29,96.14,-999,-999,485.5,379.1,-999,-999,-999
TAO125W,-0.18,-124.37,5/26/2004,3:19,475.4,2,13.75,374.2,2,12.84,1010.6,29.1,96.62,-999,-999,482,379,-999,-999,-999
TAO125W,-0.18,-124.37,5/26/2004,6:19,474.6,2,13.78,373.9,2,13.29,1012.2,28.7,96.15,-999,-999,481.2,378.9,-999,-999,-999
TAO125W,-0.18,-124.37,5/26/2004,9:19,474.9,2,13.84,373.9,2,12.99,1011.3,28.3,96.15,-999,-999,481.6,378.8,-999,-999,-999
TAO125W,-0.18,-124.37,5/26/2004,12:19,476.6,2,13.6,374.1,2,13.14,1010.7,28,96.62,26.24,35.195,483.2,379.1,464.5,364.5,100.1
TAO125W,-0.18,-124.37,5/26/2004,15:19,475.9,2,14.86,373.8,2,13.33,1011.9,27.8,96.15,-999,-999,483.1,378.8,-999,-999,-999
TAO125W,-0.18,-124.37,5/26/2004,18:19,477.5,2,15.04,373.9,2,13.12,1012.4,28,95.67,-999,-999,484.8,378.9,-999,-999,-999
TAO125W,-0.18,-124.37,5/26/2004,21:19,481,2,15.37,373.9,2,13.36,1010.3,28.7,96.14,-999,-999,488.5,379,-999,-999,-999
TAO125W,-0.18,-124.37,5/27/2004,0:19,483.2,2,15.76,373.9,2,13.21,1009.4,29.6,96.14,-999,-999,490.9,378.9,-999,-999,-999
TAO125W,-0.18,-124.37,5/27/2004,3:19,477.8,2,14.1,373.6,2,13.12,1011,30.1,96.62,-999,-999,484.6,378.6,-999,-999,-999
TAO125W,-0.18,-124.37,5/27/2004,6:19,474.2,2,14.46,373.4,2,13.54,1011.9,29.6,96.62,-999,-999,481.1,378.5,-999,-999,-999
TAO125W,-0.18,-124.37,5/27/2004,9:19,474.1,2,14.03,373.5,2,13.53,1010.9,29,96.62,-999,-999,480.9,378.6,-999,-999,-999
TAO125W,-0.18,-124.37,5/27/2004,12:19,474,2,13.68,373.4,2,13.2,1010.4,28.6,96.62,26.37,35.22,480.6,378.4,461.8,363.6,98.2
TAO125W,-0.18,-124.37,5/27/2004,15:19,473.7,2,15.26,373.1,2,14.07,1011.6,28.2,96.62,-999,-999,481.1,378.5,-999,-999,-999
TAO125W,-0.18,-124.37,5/27/2004,18:19,477.1,2,15.8,373.2,2,13.84,1012.2,28.4,96.62,-999,-999,484.8,378.4,-999,-999,-999
TAO125W,-0.18,-124.37,5/27/2004,21:19,483.1,2,15.78,373.3,2,13.72,1010.4,29.2,96.62,-999,-999,490.8,378.5,-999,-999,-999
TAO125W,-0.18,-124.37,5/28/2004,0:19,482.9,2,15.84,373.1,2,14.06,1009.3,30.2,96.62,-999,-999,490.7,378.4,-999,-999,-999
TAO125W,-0.18,-124.37,5/28/2004,3:19,475.9,2,14.5,373.1,2,13.5,1010.9,30.6,96.62,-999,-999,482.9,378.2,-999,-999,-999
TAO125W,-0.18,-124.37,5/28/2004,6:19,473.7,2,14.42,372.9,2,13.88,1011.2,30,97.1,-999,-999,480.6,378.2,-999,-999,-999
TAO125W,-0.18,-124.37,5/28/2004,9:19,473.9,2,14.75,373.2,2,13.83,1009.5,29.4,96.62,-999,-999,481,378.4,-999,-999,-999
TAO125W,-0.18,-124.37,5/28/2004,12:19,474.7,2,14.37,373.1,2,14.28,1008.4,28.9,96.62,26.33,35.233,481.6,378.5,461.8,363,98.9
TAO125W,-0.18,-124.37,5/28/2004,15:19,474.1,2,15.62,373,2,14.79,1009.8,28.6,96.62,-999,-999,481.6,378.5,-999,-999,-999
TAO125W,-0.18,-124.37,5/28/2004,18:19,475.3,2,15.72,373.2,2,14.1,1010.7,28.7,96.62,-999,-999,482.9,378.6,-999,-999,-999
TAO125W,-0.18,-124.37,5/28/2004,21:19,479.4,2,16.14,373.3,2,14.08,1008.4,29.1,96.14,-999,-999,487.2,378.6,-999,-999,-999
TAO125W,-0.18,-124.37,5/29/2004,0:19,477.6,2,15.77,373.2,2,14.05,1007.6,29.6,96.6,-999,-999,485.3,378.5,-999,-999,-999
TAO125W,-0.18,-124.37,5/29/2004,3:19,475,2,14.3,373,2,13.77,1008.9,29.8,96.62,-999,-999,481.9,378.2,-999,-999,-999
TAO125W,-0.18,-124.37,5/29/2004,6:19,474.9,2,14.69,373.3,2,14.19,1009.9,29.3,96.62,-999,-999,481.9,378.6,-999,-999,-999
TAO125W,-0.18,-124.37,5/29/2004,9:19,476.1,2,14.33,373.4,2,13.85,1008.8,28.9,96.14,-999,-999,483,378.6,-999,-999,-999
TAO125W,-0.18,-124.37,5/29/2004,12:19,477.2,2,14.03,373.4,2,13.93,1008.6,28.5,95.65,26.1,35.243,483.9,378.7,464.4,363.4,101
TAO125W,-0.18,-124.37,5/29/2004,15:19,477.6,2,15.23,373.2,2,14.04,1010.4,28.2,95.65,-999,-999,485,378.5,-999,-999,-999
TAO125W,-0.18,-124.37,5/29/2004,18:19,477.7,2,15.65,373.5,2,14.09,1011,28.2,95.65,-999,-999,485.3,378.8,-999,-999,-999
TAO125W,-0.18,-124.37,5/29/2004,21:19,480.7,2,15.33,373.4,2,13.7,1008.9,28.7,95.17,-999,-999,488.2,378.6,-999,-999,-999
TAO125W,-0.18,-124.37,5/30/2004,0:19,480,2,15.15,373.4,2,13.86,1007.4,29.3,95.63,-999,-999,487.4,378.7,-999,-999,-999
TAO125W,-0.18,-124.37,5/30/2004,3:19,476.4,2,14.19,373.4,2,13.66,1009.1,29.7,95.65,-999,-999,483.3,378.6,-999,-999,-999
TAO125W,-0.18,-124.37,5/30/2004,6:19,475.6,2,14.13,373,2,13.63,1009.9,29.1,95.65,-999,-999,482.4,378.2,-999,-999,-999
TAO125W,-0.18,-124.37,5/30/2004,9:19,477.2,2,14.12,373.2,2,13.65,1008.7,28.6,95.65,-999,-999,484,378.4,-999,-999,-999
TAO125W,-0.18,-124.37,5/30/2004,12:19,477.9,2,13.82,373.5,2,13.35,1008,28.2,95.17,25.96,35.25,484.6,378.5,464.9,363.1,101.8
TAO125W,-0.18,-124.37,5/30/2004,15:19,479.1,2,15.04,373.5,2,13.86,1009.6,27.9,95.17,-999,-999,486.4,378.7,-999,-999,-999
TAO125W,-0.18,-124.37,5/30/2004,18:19,478.9,2,15.44,373.5,2,13.9,1010.6,28,95.17,-999,-999,486.4,378.8,-999,-999,-999
TAO125W,-0.18,-124.37,5/30/2004,21:19,480.4,2,15.14,373.6,2,13.54,1008.1,28.4,94.69,-999,-999,487.8,378.7,-999,-999,-999
TAO125W,-0.18,-124.37,5/31/2004,0:19,480.5,2,15.36,373.4,2,13.69,1006.9,29.1,95.15,-999,-999,488,378.6,-999,-999,-999
TAO125W,-0.18,-124.37,5/31/2004,3:19,476.7,2,13.69,373.3,2,13.16,1009.2,29.5,95.17,-999,-999,483.3,378.3,-999,-999,-999
TAO125W,-0.18,-124.37,5/31/2004,6:19,475.8,2,14.48,373.1,2,13.99,1010.9,29.1,95.17,-999,-999,482.8,378.4,-999,-999,-999
TAO125W,-0.18,-124.37,5/31/2004,9:19,475.6,2,14.1,373.3,2,13.62,1009.7,28.6,95.17,-999,-999,482.4,378.5,-999,-999,-999
TAO125W,-0.18,-124.37,5/31/2004,12:19,476.5,2,13.82,373.8,2,13.35,1008.8,28.2,95.17,26.01,35.237,483.2,378.9,463.9,363.7,100.2
TAO125W,-0.18,-124.37,5/31/2004,15:19,476.7,2,15.41,373.3,2,13.87,1010.3,27.9,95.17,-999,-999,484.1,378.5,-999,-999,-999
TAO125W,-0.18,-124.37,5/31/2004,18:19,476.1,2,15.53,373,2,13.6,1010.8,28.1,95.17,-999,-999,483.6,378.1,-999,-999,-999
TAO125W,-0.18,-124.37,5/31/2004,21:19,479.4,2,15.76,373,2,13.36,1008.1,28.7,95.17,-999,-999,487,378.1,-999,-999,-999
TAO125W,-0.18,-124.37,6/1/2004,0:19,478.8,2,15.72,373.1,2,13.6,1006.5,29.5,95.63,-999,-999,486.5,378.2,-999,-999,-999
TAO125W,-0.18,-124.37,6/1/2004,3:19,473.1,2,13.99,373.2,2,13.45,1008.1,29.9,96.12,-999,-999,479.8,378.2,-999,-999,-999
TAO125W,-0.18,-124.37,6/1/2004,6:19,472.6,2,14.33,373.3,2,13.82,1009.9,29.4,95.65,-999,-999,479.4,378.6,-999,-999,-999
TAO125W,-0.18,-124.37,6/1/2004,9:19,472.3,3,14.28,372,3,13.41,1008.8,28.8,95.65,-999,-999,479.1,377.1,-999,-999,-999